QPF
0.00 0.00 0.00 0.00 0.00 0.00 0.00 0.00 0.00 0.00 0.00 0.00 0.00 0.00 0.00 0.00 0.00 0.00 0.01 0.03 0.05 0.03 0.01 0.05 0.04 0.05 0.02 0.01 0.02 0.09 0.14 0.11 0.13 0.19 0.17 0.08 0.02 0.00 0.00 0.00 0.00 0.00 0.00
0.00 0.00 0.00 0.00 0.00 0.00 0.00 0.00 0.00 0.00 0.00 0.00 0.00 0.00 0.00 0.00 0.00 0.00 0.00 0.00 0.02 0.05 0.03 0.02 0.01 0.02 0.04 0.04 0.03 0.03 0.06 0.08 0.10 0.13 0.16 0.12 0.08 0.01 0.00 0.00 0.00 0.00 0.00
0.00 0.00 0.00 0.00 0.00 0.00 0.00 0.00 0.00 0.00 0.00 0.00 0.00 0.00 0.00 0.00 0.00 0.00 0.00 0.00 0.00 0.00 0.01 0.03 0.00 0.00 0.03 0.05 0.05 0.03 0.01 0.06 0.09 0.10 0.11 0.08 0.04 0.03 0.00 0.00 0.00 0.00 0.00
0.00 0.00 0.00 0.00 0.00 0.00 0.00 0.00 0.00 0.00 0.00 0.00 0.00 0.00 0.00 0.00 0.00 0.00 0.00 0.00 0.00 0.00 0.00 0.00 0.00 0.00 0.00 0.02 0.01 0.00 0.01 0.04 0.10 0.14 0.19 0.18 0.11 0.03 0.00 0.00 0.00 0.00 0.00
0.00 0.00 0.00 0.00 0.00 0.00 0.00 0.00 0.00 0.00 0.00 0.00 0.00 0.00 0.00 0.00 0.00 0.00 0.00 0.00 0.00 0.00 0.00 0.00 0.00 0.00 0.00 0.00 0.02 0.01 0.02 0.04 0.07 0.13 0.16 0.20 0.19 0.10 0.02 0.00 0.00 0.00 0.00
0.00 0.00 0.00 0.00 0.00 0.00 0.00 0.00 0.00 0.00 0.00 0.00 0.00 0.00 0.00 0.00 0.00 0.00 0.00 0.00 0.00 0.00 0.00 0.00 0.00 0.00 0.00 0.00 0.01 0.04 0.05 0.08 0.09 0.10 0.15 0.19 0.24 0.20 0.12 0.03 0.00 0.00 0.00
0.00 0.00 0.00 0.00 0.00 0.00 0.00 0.00 0.00 0.00 0.00 0.00 0.00 0.00 0.00 0.00 0.00 0.00 0.00 0.00 0.00 0.00 0.00 0.00 0.00 0.00 0.00 0.00 0.01 0.01 0.06 0.09 0.12 0.13 0.11 0.13 0.21 0.24 0.17 0.05 0.00 0.00 0.00
0.00 0.00 0.00 0.00 0.00 0.00 0.00 0.00 0.00 0.00 0.00 0.00 0.00 0.00 0.00 0.00 0.00 0.00 0.00 0.00 0.00 0.00 0.00 0.00 0.00 0.00 0.00 0.00 0.02 0.01 0.02 0.07 0.08 0.10 0.12 0.15 0.20 0.24 0.26 0.18 0.05 0.00 0.00
0.00 0.00 0.00 0.00 0.00 0.00 0.00 0.00 0.00 0.00 0.00 0.00 0.00 0.01 0.01 0.00 0.00 0.00 0.00 0.00 0.00 0.00 0.00 0.00 0.00 0.00 0.00 0.00 0.00 0.01 0.02 0.03 0.03 0.05 0.10 0.09 0.12 0.13 0.18 0.20 0.13 0.03 0.00
0.00 0.00 0.00 0.00 0.00 0.00 0.00 0.00 0.00 0.00 0.00 0.00 0.00 0.00 0.00 0.01 0.01 0.00 0.00 0.00 0.00 0.01 0.02 0.02 0.01 0.01 0.01 0.01 0.00 0.00 0.00 0.01 0.01 0.02 0.03 0.09 0.09 0.15 0.20 0.23 0.23 0.14 0.03
0.00 0.00 0.00 0.00 0.00 0.00 0.00 0.00 0.00 0.00 0.00 0.01 0.01 0.01 0.01 0.00 0.00 0.01 0.00 0.00 0.00 0.00 0.00 0.00 0.00 0.02 0.02 0.01 0.00 0.00 0.00 0.01 0.00 0.02 0.02 0.04 0.07 0.08 0.12 0.20 0.25 0.27 0.21
0.00 0.00 0.00 0.00 0.00 0.00 0.00 0.00 0.00 0.00 0.00 0.00 0.00 0.00 0.01 0.01 0.01 0.01 0.01 0.00 0.00 0.00 0.00 0.00 0.01 0.02 0.00 0.00 0.00 0.00 0.00 0.00 0.00 0.00 0.00 0.00 0.02 0.05 0.02 0.03 0.08 0.15 0.22
0.00 0.00 0.00 0.00 0.00 0.00 0.00 0.00 0.00 0.00 0.00 0.00 0.00 0.00 0.00 0.01 0.01 0.01 0.01 0.00 0.00 0.00 0.00 0.00 0.01 0.02 0.01 0.00 0.00 0.00 0.00 0.00 0.00 0.00 0.00 0.00 0.00 0.02 0.05 0.03 0.03 0.04 0.07
0.00 0.00 0.00 0.00 0.00 0.00 0.00 0.00 0.00 0.00 0.00 0.00 0.00 0.00 0.00 0.00 0.01 0.01 0.01 0.01 0.00 0.00 0.00 0.01 0.00 0.01 0.01 0.01 0.00 0.00 0.00 0.00 0.00 0.00 0.00 0.00 0.00 0.01 0.03 0.06 0.04 0.02 0.03
0.00 0.00 0.00 0.00 0.00 0.00 0.00 0.00 0.00 0.00 0.00 0.00 0.00 0.00 0.00 0.00 0.00 0.00 0.00 0.01 0.01 0.01 0.00 0.01 0.01 0.01 0.00 0.00 0.00 0.00 0.00 0.00 0.00 0.00 0.00 0.00 0.00 0.00 0.02 0.04 0.04 0.03 0.02
0.00 0.00 0.00 0.00 0.00 0.00 0.00 0.00 0.00 0.00 0.00 0.00 0.00 0.00 0.00 0.00 0.00 0.00 0.00 0.00 0.01 0.01 0.00 0.00 0.00 0.00 0.00 0.00 0.00 0.00 0.00 0.00 0.00 0.00 0.00 0.00 0.00 0.00 0.00 0.00 0.00 0.00 0.00
0.00 0.00 0.00 0.00 0.00 0.00 0.00 0.00 0.00 0.00 0.00 0.00 0.00 0.00 0.00 0.00 0.00 0.00 0.00 0.00 0.00 0.00 0.01 0.00 0.00 0.00 0.00 0.00 0.00 0.00 0.00 0.00 0.00 0.00 0.00 0.00 0.00 0.00 0.00 0.00 0.00 0.00 0.00
0.00 0.00 0.00 0.00 0.00 0.00 0.00 0.00 0.00 0.00 0.00 0.00 0.00 0.00 0.00 0.00 0.00 0.00 0.00 0.00 0.00 0.00 0.00 0.00 0.00 0.00 0.00 0.00 0.00 0.00 0.00 0.00 0.00 0.00 0.00 0.00 0.00 0.00 0.00 0.00 0.00 0.00 0.00
0.00 0.00 0.00 0.00 0.00 0.00 0.00 0.00 0.00 0.00 0.00 0.00 0.00 0.00 0.00 0.00 0.00 0.00 0.00 0.00 0.00 0.00 0.00 0.00 0.00 0.00 0.00 0.00 0.00 0.00 0.00 0.00 0.00 0.00 0.00 0.00 0.00 0.00 0.00 0.00 0.00 0.00 0.00
0.00 0.00 0.00 0.00 0.00 0.00 0.00 0.00 0.00 0.00 0.00 0.00 0.00 0.00 0.00 0.00 0.00 0.00 0.00 0.00 0.00 0.00 0.00 0.00 0.00 0.00 0.00 0.00 0.00 0.00 0.00 0.00 0.00 0.00 0.00 0.00 0.00 0.00 0.00 0.00 0.00 0.00 0.00
0.00 0.00 0.00 0.00 0.00 0.00 0.00 0.00 0.00 0.00 0.00 0.00 0.00 0.00 0.00 0.00 0.00 0.00 0.00 0.00 0.00 0.00 0.00 0.00 0.00 0.00 0.00 0.00 0.00 0.00 0.00 0.00 0.00 0.00 0.00 0.00 0.00 0.00 0.00 0.00 0.00 0.00 0.00
0.00 0.00 0.00 0.00 0.00 0.00 0.00 0.00 0.00 0.00 0.00 0.00 0.00 0.00 0.00 0.00 0.00 0.00 0.00 0.00 0.00 0.00 0.00 0.00 0.00 0.00 0.00 0.00 0.00 0.00 0.00 0.00 0.00 0.00 0.00 0.00 0.00 0.00 0.00 0.00 0.00 0.00 0.00
0.00 0.00 0.00 0.00 0.00 0.00 0.00 0.00 0.00 0.00 0.00 0.00 0.00 0.00 0.00 0.00 0.00 0.00 0.00 0.00 0.00 0.00 0.00 0.00 0.00 0.00 0.00 0.00 0.00 0.00 0.00 0.00 0.00 0.00 0.00 0.00 0.00 0.00 0.00 0.00 0.00 0.00 0.00
0.00 0.00 0.00 0.00 0.00 0.00 0.00 0.00 0.00 0.00 0.00 0.00 0.00 0.00 0.00 0.00 0.00 0.00 0.00 0.00 0.00 0.00 0.00 0.00 0.00 0.00 0.00 0.00 0.00 0.00 0.00 0.00 0.00 0.00 0.00 0.00 0.00 0.00 0.00 0.00 0.00 0.00 0.00
0.00 0.00 0.00 0.00 0.00 0.00 0.00 0.00 0.00 0.00 0.00 0.00 0.00 0.00 0.00 0.00 0.00 0.00 0.00 0.00 0.00 0.00 0.00 0.00 0.00 0.00 0.00 0.00 0.00 0.00 0.00 0.00 0.00 0.00 0.00 0.00 0.00 0.00 0.00 0.00 0.00 0.00 0.00
0.00 0.00 0.00 0.00 0.00 0.00 0.00 0.00 0.00 0.00 0.00 0.00 0.00 0.00 0.00 0.00 0.00 0.00 0.00 0.00 0.00 0.00 0.00 0.00 0.00 0.00 0.00 0.00 0.00 0.00 0.00 0.00 0.00 0.00 0.00 0.00 0.00 0.00 0.00 0.00 0.00 0.00 0.00
MSLP
1021.64 1021.38 1021.09 1020.82 1020.64 1020.35 1019.98 1019.43 1018.96 1018.38 1017.92 1017.39 1016.90 1016.40 1015.76 1015.16 1014.51 1013.80 1012.95 1012.26 1011.78 1011.54 1011.38 1011.43 1011.27 1011.28 1011.55 1011.70 1012.44 1012.72 1013.38 1013.83 1013.96 1014.88 1015.32 1015.45 1015.91 1016.36 1016.65 1016.91 1017.45 1017.85 1018.28
1022.08 1021.77 1021.47 1021.21 1020.98 1020.71 1020.24 1019.74 1019.26 1018.64 1018.13 1017.57 1016.86 1016.35 1015.64 1014.96 1014.47 1013.86 1013.07 1012.06 1011.41 1010.98 1010.71 1010.60 1010.75 1010.58 1010.56 1011.02 1011.84 1011.88 1012.59 1013.00 1013.59 1014.40 1014.70 1014.97 1015.21 1015.79 1016.09 1016.26 1016.94 1017.39 1017.80
1022.53 1022.35 1022.03 1021.72 1021.42 1020.98 1020.48 1019.96 1019.38 1018.76 1018.24 1017.51 1016.92 1016.23 1015.50 1014.70 1013.94 1013.33 1012.83 1012.06 1011.17 1010.52 1010.25 1010.15 1010.10 1010.04 1010.24 1010.66 1011.46 1011.40 1011.81 1011.98 1011.77 1013.80 1014.17 1014.34 1014.54 1015.05 1015.60 1015.93 1016.29 1017.03 1017.41
1022.80 1022.55 1022.23 1021.97 1021.63 1021.13 1020.60 1020.15 1019.56 1018.91 1018.37 1017.74 1016.91 1016.06 1015.21 1014.44 1013.61 1012.99 1012.37 1011.88 1011.00 1010.15 1009.76 1009.72 1009.63 1009.65 1009.73 1010.30 1010.70 1010.84 1010.85 1010.95 1011.21 1012.81 1013.33 1013.61 1013.90 1014.32 1014.89 1015.44 1015.70 1016.33 1016.86
1022.97 1022.72 1022.45 1022.18 1021.81 1021.33 1020.89 1020.44 1019.86 1019.30 1018.54 1017.74 1016.76 1015.75 1014.87 1013.92 1013.17 1012.47 1011.93 1011.28 1010.69 1009.92 1009.32 1009.20 1009.26 1009.32 1009.51 1009.92 1010.09 1010.28 1010.33 1010.59 1010.72 1012.19 1012.60 1012.90 1013.29 1013.60 1014.08 1014.65 1015.08 1015.72 1016.24
1023.37 1023.09 1022.77 1022.45 1022.02 1021.53 1021.06 1020.57 1020.04 1019.47 1018.74 1017.67 1016.49 1015.25 1014.32 1013.28 1012.31 1011.62 1011.10 1010.54 1009.94 1009.54 1009.14 1008.76 1008.87 1009.13 1009.26 1009.52 1009.54 1009.90 1010.02 1010.21 1010.37 1011.09 1011.72 1012.21 1012.43 1012.76 1013.07 1013.77 1014.22 1014.94 1015.53
1023.55 1023.21 1022.93 1022.48 1022.09 1021.73 1021.30 1020.72 1020.07 1019.39 1018.51 1017.63 1016.42 1014.95 1013.43 1012.12 1011.25 1010.88 1010.24 1009.76 1009.32 1008.88 1008.68 1008.63 1008.52 1008.64 1008.69 1009.02 1009.24 1009.29 1009.45 1009.59 1009.83 1010.30 1010.64 1011.18 1011.78 1012.06 1012.44 1012.78 1013.44 1014.12 1014.77
1023.89 1023.44 1023.15 1022.59 1022.27 1021.87 1021.36 1020.82 1020.24 1019.66 1018.73 1018.20 1017.39 1015.93 1013.41 1011.48 1010.97 1009.93 1009.41 1009.20 1008.97 1008.70 1008.21 1008.06 1008.31 1008.31 1008.29 1008.48 1008.67 1008.94 1008.92 1009.11 1009.32 1009.52 1008.87 1010.35 1010.93 1011.33 1011.78 1012.00 1012.50 1013.33 1014.01
1023.78 1023.45 1023.19 1022.81 1022.43 1022.03 1021.48 1021.04 1020.47 1019.92 1019.01 1018.40 1017.97 1017.56 1015.55 1013.88 1013.05 1010.24 1009.65 1008.85 1008.61 1008.42 1008.08 1007.82 1008.01 1008.14 1008.00 1008.13 1008.33 1008.50 1008.63 1008.71 1008.79 1008.90 1009.17 1009.66 1010.07 1010.60 1011.03 1011.30 1011.66 1012.27 1013.02
1023.94 1023.65 1023.33 1022.94 1022.39 1022.14 1021.62 1021.21 1020.46 1019.95 1019.47 1018.61 1018.04 1017.47 1016.95 1016.08 1014.80 1012.43 1010.12 1009.91 1009.76 1008.89 1008.13 1008.00 1007.99 1007.78 1007.70 1007.68 1007.95 1008.19 1007.95 1008.17 1008.37 1008.37 1008.74 1008.98 1009.21 1009.56 1010.07 1010.39 1010.76 1011.25 1011.96
1023.92 1023.82 1023.56 1023.03 1022.72 1022.35 1021.98 1021.25 1020.56 1020.07 1019.77 1019.00 1018.30 1017.48 1016.66 1015.85 1015.23 1014.29 1012.33 1010.82 1010.62 1009.78 1009.37 1008.78 1008.27 1008.15 1008.10 1008.29 1008.59 1008.85 1008.44 1008.22 1007.91 1007.77 1008.22 1008.45 1008.65 1008.55 1009.09 1009.68 1010.03 1010.46 1010.97
1024.21 1023.87 1023.69 1023.53 1023.16 1022.63 1022.25 1021.44 1020.84 1020.52 1019.90 1019.28 1018.55 1017.68 1016.66 1015.75 1014.88 1014.38 1013.42 1012.21 1011.18 1010.27 1009.80 1009.33 1008.76 1009.00 1009.16 1009.46 1009.79 1009.26 1008.77 1008.50 1008.23 1008.06 1008.08 1007.97 1008.11 1008.25 1008.50 1009.00 1009.43 1009.76 1010.06
1024.49 1024.24 1024.20 1023.94 1023.72 1022.99 1022.30 1021.84 1021.16 1020.93 1020.28 1019.51 1018.73 1017.82 1016.85 1015.74 1014.89 1014.41 1013.82 1013.04 1012.15 1011.03 1010.33 1009.88 1009.64 1009.34 1009.72 1010.20 1010.35 1010.17 1009.63 1009.30 1008.84 1008.25 1007.79 1007.84 1008.06 1008.08 1008.09 1008.12 1008.78 1009.34 1009.76
1025.03 1024.82 1024.55 1024.34 1023.69 1023.23 1022.70 1021.98 1021.47 1021.34 1020.65 1019.91 1018.98 1018.03 1017.01 1015.96 1015.25 1014.29 1013.72 1013.14 1012.34 1011.20 1010.64 1010.17 1010.38 1010.14 1010.41 1010.41 1010.98 1010.92 1010.72 1010.21 1010.17 1009.38 1008.96 1008.60 1008.45 1008.58 1008.59 1008.74 1008.47 1008.34 1009.40
1025.28 1025.27 1025.01 1024.60 1023.84 1023.54 1022.97 1022.32 1022.01 1021.55 1020.90 1020.28 1019.25 1018.15 1017.16 1016.24 1015.40 1014.64 1013.89 1013.26 1012.44 1011.66 1010.70 1010.73 1010.85 1011.39 1011.43 1010.92 1011.53 1011.38 1012.45 1011.46 1011.31 1010.82 1010.25 1009.84 1009.68 1009.83 1009.94 1009.88 1009.46 1009.48 1009.55
1025.64 1025.45 1025.15 1024.78 1024.20 1023.87 1023.38 1022.91 1022.32 1021.89 1021.38 1020.68 1019.71 1018.49 1017.43 1016.58 1015.65 1014.85 1014.01 1013.07 1012.05 1011.84 1011.37 1011.28 1011.78 1011.58 1011.00 1011.62 1012.98 1011.92 1012.07 1013.41 1011.59 1011.97 1011.68 1011.31 1011.10 1011.18 1011.24 1011.20 1011.00 1011.03 1010.82
1025.64 1025.65 1025.25 1025.01 1024.72 1024.10 1023.80 1023.36 1022.81 1022.42 1021.92 1021.27 1020.19 1019.05 1017.99 1017.09 1016.14 1015.22 1014.29 1013.29 1012.48 1012.05 1011.67 1012.48 1012.72 1013.07 1013.07 1012.79 1012.72 1012.80 1014.50 1012.19 1013.78 1013.13 1012.53 1012.64 1012.42 1012.54 1012.55 1012.51 1012.51 1012.48 1012.11
1026.05 1025.93 1025.52 1025.32 1024.98 1024.31 1024.21 1023.81 1023.49 1023.01 1022.59 1022.05 1020.98 1019.87 1018.69 1017.73 1016.82 1016.01 1015.16 1014.33 1013.51 1012.99 1012.59 1012.96 1013.73 1013.72 1013.70 1013.99 1014.61 1013.88 1013.84 1013.84 1013.78 1014.27 1013.35 1013.99 1013.65 1013.51 1013.54 1013.55 1013.65 1013.44 1013.05
1026.28 1026.10 1025.75 1025.53 1025.17 1024.66 1024.63 1024.25 1024.04 1023.69 1023.23 1022.91 1021.97 1020.93 1019.78 1018.70 1017.82 1017.03 1016.27 1015.47 1014.84 1014.37 1013.94 1014.04 1014.77 1014.99 1014.83 1014.84 1014.53 1014.85 1015.20 1015.12 1015.09 1015.18 1014.91 1015.19 1014.83 1014.78 1014.75 1014.55 1014.32 1014.34 1014.14
1026.28 1026.15 1025.91 1025.77 1025.44 1024.98 1024.89 1024.65 1024.48 1024.20 1023.81 1023.53 1022.81 1021.93 1021.07 1020.06 1019.19 1018.40 1017.69 1017.00 1016.38 1015.86 1015.68 1015.69 1015.97 1016.12 1016.11 1016.16 1015.89 1015.85 1016.08 1016.34 1016.52 1016.30 1016.25 1016.14 1015.93 1015.85 1015.60 1015.54 1015.32 1015.49 1015.41
1026.61 1026.48 1026.20 1025.96 1025.52 1025.19 1025.10 1025.10 1024.91 1024.79 1024.28 1024.11 1023.59 1022.87 1022.31 1021.62 1020.80 1019.92 1019.26 1018.79 1018.05 1017.53 1017.37 1017.33 1017.50 1017.71 1017.84 1017.60 1017.57 1017.32 1017.11 1017.34 1017.53 1017.69 1017.33 1017.18 1016.91 1016.90 1016.86 1016.62 1016.37 1016.59 1016.29
1027.30 1027.33 1026.92 1026.52 1026.03 1025.67 1025.60 1025.56 1025.51 1025.40 1025.15 1024.68 1024.32 1023.82 1023.23 1022.90 1022.51 1021.82 1021.09 1020.50 1020.09 1019.60 1019.41 1019.37 1019.44 1019.35 1019.48 1019.26 1018.72 1018.38 1017.95 1017.83 1018.03 1018.66 1018.88 1018.80 1018.50 1018.28 1018.38 1018.39 1018.19 1017.60 1017.16
1027.90 1027.90 1027.55 1027.03 1026.56 1026.23 1026.04 1026.05 1026.08 1026.29 1025.96 1025.73 1025.32 1024.89 1024.28 1023.87 1023.58 1023.30 1023.01 1022.58 1021.85 1021.60 1021.55 1021.40 1021.19 1021.21 1020.98 1020.87 1019.87 1019.40 1019.33 1019.48 1020.36 1020.91 1020.00 1020.06 1019.82 1019.41 1019.38 1019.26 1018.90 1018.57 1018.15
1028.35 1028.28 1027.98 1027.47 1027.03 1026.70 1026.50 1026.44 1026.57 1027.07 1026.57 1026.31 1026.08 1025.80 1025.42 1024.93 1024.62 1024.58 1024.39 1024.12 1023.86 1023.43 1023.02 1023.00 1022.79 1022.62 1022.21 1021.77 1021.21 1020.59 1020.36 1020.74 1021.21 1021.44 1021.41 1021.38 1021.35 1020.70 1020.50 1020.46 1019.88 1019.50 1019.08
1028.58 1028.50 1028.24 1027.83 1027.55 1027.27 1026.88 1026.87 1027.12 1027.37 1027.16 1026.89 1026.69 1026.04 1026.23 1025.83 1025.45 1025.48 1025.45 1025.44 1025.50 1025.74 1025.33 1024.52 1024.15 1023.96 1023.31 1022.66 1022.39 1021.69 1021.70 1021.33 1022.02 1022.61 1022.57 1022.28 1022.22 1021.83 1021.34 1021.37 1021.05 1020.80 1020.43
1028.51 1028.49 1028.36 1028.16 1027.88 1027.78 1026.98 1027.21 1027.55 1027.77 1027.74 1027.50 1027.38 1026.89 1026.17 1026.36 1026.17 1026.26 1026.34 1026.49 1026.52 1027.12 1026.61 1026.08 1025.70 1025.24 1024.97 1024.66 1024.08 1024.03 1023.97 1023.66 1023.83 1024.28 1024.46 1024.19 1023.60 1023.17 1022.28 1021.92 1021.93 1021.78 1021.54
Thickness
5607 5607 5607 5606 5605 5605 5606 5608 5610 5613 5616 5618 5620 5622 5626 5630 5635 5639 5645 5651 5656 5659 5660 5662 5664 5665 5665 5665 5657 5656 5652 5650 5651 5643 5641 5644 5646 5645 5645 5645 5642 5640 5637
5596 5596 5595 5593 5592 5590 5591 5592 5594 5597 5599 5602 5606 5608 5614 5619 5622 5627 5631 5640 5645 5651 5655 5655 5657 5661 5663 5662 5654 5654 5652 5647 5642 5640 5638 5639 5642 5642 5643 5645 5641 5639 5637
5579 5578 5577 5576 5575 5574 5574 5575 5576 5579 5581 5584 5588 5592 5597 5604 5611 5615 5619 5625 5633 5639 5644 5647 5650 5654 5653 5653 5648 5652 5650 5647 5645 5634 5634 5636 5639 5639 5639 5639 5640 5636 5636
5566 5564 5562 5560 5558 5558 5557 5557 5559 5561 5562 5564 5568 5574 5580 5586 5593 5599 5605 5609 5617 5626 5631 5636 5640 5644 5646 5642 5641 5647 5652 5648 5646 5634 5632 5633 5635 5636 5636 5635 5636 5634 5634
5553 5550 5547 5544 5541 5539 5536 5535 5535 5535 5539 5542 5549 5555 5560 5566 5572 5579 5587 5594 5600 5609 5617 5621 5626 5630 5634 5633 5635 5637 5645 5644 5645 5633 5631 5630 5630 5633 5633 5633 5633 5631 5630
5535 5532 5529 5525 5522 5519 5515 5513 5512 5510 5510 5514 5522 5529 5535 5542 5549 5556 5564 5573 5583 5590 5598 5606 5609 5613 5619 5623 5629 5630 5634 5639 5640 5634 5630 5628 5629 5631 5632 5631 5632 5629 5627
5518 5516 5513 5509 5505 5499 5495 5494 5493 5489 5485 5481 5487 5497 5506 5515 5521 5528 5539 5550 5562 5572 5578 5584 5591 5598 5606 5610 5616 5624 5627 5632 5635 5632 5634 5630 5628 5629 5628 5631 5631 5628 5626
5502 5498 5493 5489 5485 5479 5474 5471 5467 5461 5457 5449 5450 5458 5480 5490 5492 5503 5511 5522 5533 5544 5557 5563 5568 5579 5589 5598 5605 5611 5619 5624 5627 5631 5640 5631 5626 5624 5624 5627 5629 5626 5624
5485 5481 5476 5472 5467 5461 5455 5448 5443 5439 5437 5431 5430 5430 5444 5447 5449 5475 5489 5502 5512 5521 5534 5544 5549 5558 5572 5584 5592 5600 5607 5615 5621 5625 5627 5624 5625 5622 5624 5624 5625 5625 5623
5471 5466 5460 5455 5450 5443 5437 5430 5428 5425 5420 5420 5418 5418 5418 5419 5425 5445 5468 5475 5484 5501 5514 5520 5531 5544 5556 5569 5576 5585 5600 5606 5612 5617 5618 5620 5622 5624 5623 5623 5624 5624 5623
5457 5450 5444 5440 5433 5428 5423 5419 5417 5414 5408 5408 5407 5407 5409 5412 5416 5423 5438 5455 5463 5478 5487 5501 5514 5521 5532 5546 5556 5569 5583 5593 5604 5610 5613 5615 5617 5622 5622 5620 5621 5621 5621
5442 5437 5432 5425 5421 5418 5412 5408 5405 5401 5399 5398 5397 5397 5400 5406 5411 5414 5422 5434 5450 5463 5470 5481 5493 5499 5511 5521 5532 5550 5565 5576 5587 5596 5601 5607 5611 5615 5617 5616 5617 5618 5618
5431 5427 5421 5416 5409 5408 5405 5398 5395 5391 5390 5389 5388 5388 5391 5397 5402 5405 5410 5415 5428 5444 5454 5465 5474 5485 5492 5501 5513 5527 5542 5553 5568 5580 5590 5596 5600 5604 5606 5611 5611 5611 5612
5419 5415 5411 5406 5405 5400 5394 5391 5388 5383 5381 5380 5381 5382 5385 5390 5392 5399 5402 5409 5417 5433 5442 5452 5456 5467 5475 5487 5494 5506 5519 5533 5542 5557 5568 5577 5584 5589 5593 5595 5601 5608 5604
5409 5406 5402 5399 5399 5394 5389 5386 5379 5377 5375 5374 5375 5377 5379 5382 5385 5388 5392 5399 5409 5420 5436 5438 5445 5445 5456 5471 5479 5491 5491 5510 5519 5531 5544 5554 5561 5565 5570 5576 5580 5583 5588
5402 5398 5395 5394 5393 5388 5384 5380 5376 5371 5369 5368 5370 5373 5375 5375 5378 5380 5385 5394 5407 5413 5423 5427 5427 5437 5452 5455 5456 5475 5483 5482 5505 5508 5519 5530 5538 5542 5547 5553 5557 5558 5566
5393 5390 5389 5388 5385 5383 5379 5375 5372 5368 5364 5362 5366 5368 5369 5370 5373 5375 5381 5388 5398 5405 5418 5409 5413 5418 5426 5439 5450 5457 5452 5481 5475 5488 5500 5506 5514 5519 5524 5529 5534 5536 5542
5384 5381 5383 5381 5380 5380 5375 5371 5367 5364 5359 5356 5359 5363 5365 5366 5368 5371 5374 5378 5387 5394 5404 5403 5401 5409 5417 5424 5426 5441 5448 5455 5465 5468 5482 5484 5492 5498 5504 5508 5513 5518 5524
5376 5374 5376 5375 5376 5375 5369 5366 5362 5360 5357 5352 5352 5356 5360 5362 5363 5365 5367 5371 5377 5384 5390 5394 5391 5395 5404 5411 5421 5425 5429 5435 5443 5449 5458 5461 5470 5475 5481 5486 5492 5497 5503
5369 5369 5369 5369 5370 5369 5365 5362 5359 5356 5354 5350 5349 5350 5352 5355 5358 5359 5361 5364 5370 5377 5380 5382 5382 5385 5390 5395 5404 5412 5414 5417 5422 5429 5435 5441 5448 5454 5461 5465 5472 5474 5477
5360 5360 5361 5362 5363 5363 5360 5356 5354 5352 5352 5349 5347 5347 5346 5347 5350 5353 5354 5356 5362 5366 5369 5372 5372 5372 5375 5382 5387 5392 5401 5403 5405 5410 5418 5422 5428 5433 5438 5444 5450 5451 5456
5350 5348 5350 5352 5354 5355 5352 5350 5349 5347 5346 5346 5344 5344 5344 5341 5340 5342 5346 5349 5350 5353 5355 5356 5358 5362 5361 5366 5374 5378 5386 5394 5399 5395 5396 5401 5406 5411 5414 5418 5423 5430 5436
5339 5337 5339 5343 5344 5345 5344 5343 5341 5338 5338 5336 5336 5337 5338 5338 5338 5337 5337 5337 5341 5342 5341 5343 5344 5345 5349 5351 5362 5369 5370 5372 5368 5368 5380 5384 5387 5392 5395 5399 5404 5410 5415
5328 5328 5330 5334 5335 5336 5336 5335 5333 5331 5330 5330 5329 5329 5329 5331 5332 5330 5330 5330 5330 5332 5334 5333 5334 5335 5339 5343 5348 5354 5358 5357 5357 5357 5361 5366 5364 5372 5375 5379 5385 5390 5395
5320 5320 5321 5324 5324 5325 5327 5326 5325 5323 5322 5322 5322 5324 5321 5321 5323 5322 5322 5321 5320 5318 5320 5324 5326 5327 5331 5336 5339 5344 5344 5351 5346 5342 5344 5349 5349 5352 5358 5360 5363 5366 5371
5314 5314 5314 5314 5316 5314 5317 5316 5315 5314 5312 5313 5312 5314 5315 5313 5313 5313 5313 5311 5311 5306 5309 5313 5316 5318 5320 5322 5325 5327 5327 5329 5326 5325 5324 5329 5332 5335 5346 5346 5347 5348 5350